Weather in Kamen'-Rybolov

Russia / Primorsky Krai     44°44′24″N   132°02′31″E
temp.,
°C
wind,
m/s
gust,
m/s
humid.,
%
clouds,
%
prec.,
mm/h
press.,
hPa
HPBL,
m
13 april, tue
tue1301:00+7ssw71475100 0.0 1009533
04:00+7ssw61387100 0.8 1006530
07:00+6nw4893100 2.9 1004712
10:00+1nnw81369100 5.2 1007861
13:00+3nw81146100 0.0 10081440
16:00+4nnw71034100 0.0 10071967
19:00+4nw793342 0.0 10082028
22:00+1wnw611411 0.0 10111337
14 april, wed
wed1401:00−1wnw510425 0.0 10121126
04:00−2w49440 0.0 1012798
07:00−2wsw384483 0.0 1012454
10:00+3w373436 0.0 10111675
13:00+5wnw3730100 0.0 10102375
16:00+7wnw5925100 0.0 10092761
19:00+6wnw3829100 0.0 10091742
22:00+4w3539100 0.0 101186
15 april, thu
thu1501:00+2w22455 0.0 101222
04:00+1wsw114795 0.0 101313
07:00+1sse2250100 0.0 101424
10:00+5s47395 0.0 1013410
13:00+11s4727100 0.0 10111075
16:00+15sse792610 0.0 10091654
19:00+11s101738100 0.0 1010485
22:00+8ssw71547100 0.0 1012489
16 april, fri
fri1601:00+7ssw81761100 0.0 1011598
04:00+6s81775100 0.0 1010712
07:00+7s81685100 0.0 1008852
10:00+8sse101771100 0.0 10061146
13:00+9sse81669100 0.3 10041360
16:00+10s10176590 1.2 10011512
19:00+9s9156759 0.6 10011154
22:00+7s5883100 0.9 1001540
17 april, sat
sat1701:00+6ssw5118224 0.1 1002424
04:00+4ssw4108240 0.1 1002289
07:00+3s367597 0.0 1004112
10:00+6ssw45538 0.0 10051083
13:00+8sw344994 0.1 10051333
16:00+8nw235095 0.1 10041209
19:00+7nne125774 0.6 1006563
22:00+6nw377381 0.9 1009300